Location: Mount Lemmon
(32.4432°N, 110.7577°W)
Time: 06:22:33
(UTC-07:00)

OTV 5 (USA 277) - Visible Passes

Search period start: 25 September 2017 00:00
Search period end: 05 October 2017 00:00
Orbit: 404 x 417 km, 43.0° (Epoch: 07 September)

Date Brightness Start Highest point End Pass type
(mag) Time Alt. Az. Time Alt. Az. Time Alt. Az.
25 Sep ? 04:40:25 12° N 04:41:03 13° N 04:42:40 10° NNE visible
26 Sep ? 05:25:34 10° NNW 05:27:56 18° NNE 05:30:17 10° ENE visible
27 Sep ? 04:36:02 15° N 04:36:40 15° N 04:38:42 10° NE visible
28 Sep ? 05:20:24 10° NW 05:23:23 31° NNE 05:26:20 10° E visible
29 Sep ? 04:31:56 23° N 04:32:12 23° NNE 04:34:53 10° ENE visible
30 Sep ? 05:16:25 19° NW 05:18:39 78° NNE 05:21:55 10° ESE visible
01 Oct ? 04:28:15 39° ENE 04:28:15 39° ENE 04:30:44 10° ESE visible
02 Oct ? 05:13:00 29° WSW 05:13:44 33° SW 05:16:43 10° SSE visible
03 Oct ? 04:25:05 17° SE 04:25:05 17° SE 04:25:57 10° SE visible
